Preston, MN

9:56 AM CDT on September 26, 2017 (GMT -0500)
Preston

Weather History for KFKA - January, 2013

Change the Weather History Date:

Thursday, January 24, 2013

  Actual Average (KRST) Record (KRST)
Temperature  
Mean Temperature 4 °F -  
Max Temperature 13 °F 22 °F 55 °F (1981)
Min Temperature -4 °F 6 °F -34 °F (1935)
Degree Days  
Heating Degree Days 61    
Moisture  
Dew Point -6 °F    
Average Humidity 63    
Maximum Humidity 70    
Minimum Humidity 55    
Precipitation  
Precipitation 0.00 in - - ()
Sea Level Pressure  
Sea Level Pressure 30.45 in    
Wind  
Wind Speed 8 mph (ESE)    
Max Wind Speed 15 mph    
Max Gust Speed 21 mph    
Visibility 10 miles    
Events      
Averages and records for this station are not official NWS values.
T = Trace of Precipitation, MM = Missing Value Source: NWS Daily Summary

Daily Weather History Graph

Daily Weather History Graph

Search for Another Location

Airport or City:

Trip Planner

Search our weather history database for the weather conditions in past years. The results will help you decide how hot, cold, wet, or windy it might be!

Date:

Astronomy

Jan. 24, 2013 Rise Set
Actual Time 7:32 AM CST 5:09 PM CST
Civil Twilight 7:01 AM CST 5:40 PM CST
Nautical Twilight 6:26 AM CST 6:15 PM CST
Astronomical Twilight 5:52 AM CST 6:49 PM CST
Moon 3:10 PM CST (1/24) 5:31 AM CST (1/24)
Length of Visible Light 10h 38m
Length of Day
9h 36m
Waxing Gibbous, 94% of the Moon is Illuminated
Jan 24
Waxing Gibbous
Jan 26
Full
Feb 3
Last Quarter
Feb 10
New
Feb 17
First Quarter

Hourly Weather History & Observations

Time (CST) Temp. Windchill Dew Point Humidity Pressure Visibility Wind Dir Wind Speed Gust Speed Precip Events Conditions
12:10 AM -3.3 °F -19.3 °F -13.0 °F 63% 30.50 in 10.0 mi North 9.2 mph - N/A   Clear
12:29 AM -3.6 °F -18.6 °F -13.0 °F 64% 30.51 in 10.0 mi North 8.1 mph - N/A   Clear
12:49 AM -4.0 °F -20.2 °F -13.2 °F 65% 30.51 in 10.0 mi North 9.2 mph - N/A   Clear
1:09 AM -4.0 °F -19.0 °F -13.5 °F 64% 30.51 in 10.0 mi North 8.1 mph - N/A   Clear
1:30 AM -4.2 °F -20.4 °F -13.9 °F 63% 30.52 in 10.0 mi North 9.2 mph - N/A   Clear
1:49 AM -4.2 °F -22.3 °F -14.3 °F 62% 30.52 in 10.0 mi North 11.5 mph 17.3 mph N/A   Clear
2:09 AM -4.4 °F -20.6 °F -14.1 °F 63% 30.53 in 10.0 mi North 9.2 mph - N/A   Clear
2:30 AM -4.5 °F -18.4 °F -13.5 °F 65% 30.54 in 10.0 mi North 6.9 mph - N/A   Clear
2:49 AM -4.9 °F -22.3 °F -13.9 °F 65% 30.55 in 10.0 mi North 10.4 mph - N/A   Clear
3:10 AM -4.9 °F -13.4 °F -13.9 °F 65% 30.55 in 10.0 mi North 3.5 mph - N/A   Clear
3:29 AM -4.9 °F -18.8 °F -13.5 °F 66% 30.56 in 10.0 mi North 6.9 mph - N/A   Clear
3:50 AM -4.9 °F -21.3 °F -13.9 °F 65% 30.56 in 10.0 mi North 9.2 mph - N/A   Clear
4:09 AM -4.9 °F -17.4 °F -14.1 °F 65% 30.58 in 10.0 mi North 5.8 mph - N/A   Clear
4:30 AM -4.9 °F -20.1 °F -14.1 °F 65% 30.57 in 10.0 mi NNE 8.1 mph - N/A   Clear
4:49 AM -4.7 °F -19.9 °F -13.4 °F 66% 30.58 in 10.0 mi North 8.1 mph - N/A   Clear
5:10 AM -4.9 °F -20.1 °F -13.2 °F 68% 30.55 in 10.0 mi NNE 8.1 mph - N/A   Clear
5:29 AM -4.9 °F -18.8 °F -13.4 °F 67% 30.55 in 10.0 mi NE 6.9 mph - N/A   Clear
5:50 AM -4.5 °F -16.9 °F -13.0 °F 67% 30.55 in 10.0 mi NNE 5.8 mph - N/A   Clear
6:10 AM -4.5 °F -13.0 °F -12.8 °F 68% 30.56 in 10.0 mi NNE 3.5 mph - N/A   Clear
6:29 AM -4.4 °F -15.0 °F -12.8 °F 67% 30.56 in 10.0 mi NE 4.6 mph - N/A   Clear
6:49 AM -4.0 °F -16.3 °F -11.9 °F 69% 30.57 in 10.0 mi NE 5.8 mph - N/A   Clear
7:10 AM -4.0 °F -14.6 °F -11.9 °F 69% 30.59 in 10.0 mi NE 4.6 mph - N/A   Clear
7:29 AM -3.5 °F -15.7 °F -11.6 °F 68% 30.59 in 10.0 mi NE 5.8 mph - N/A   Mostly Cloudy
7:50 AM -3.3 °F -11.6 °F -11.2 °F 69% 30.60 in 10.0 mi NNE 3.5 mph - N/A   Mostly Cloudy
8:09 AM -3.1 °F -13.5 °F -10.7 °F 70% 30.60 in 10.0 mi NNE 4.6 mph - N/A   Mostly Cloudy
8:30 AM -2.6 °F -12.9 °F -10.5 °F 69% 30.59 in 10.0 mi NE 4.6 mph - N/A   Scattered Clouds
8:50 AM -2.4 °F -12.7 °F -10.7 °F 68% 30.58 in 10.0 mi East 4.6 mph - N/A   Clear
9:10 AM -1.8 °F -12.0 °F -10.3 °F 67% 30.57 in 10.0 mi East 4.6 mph - N/A   Clear
9:29 AM -1.3 °F -11.4 °F -9.6 °F 68% 30.57 in 10.0 mi ESE 4.6 mph - N/A   Clear
9:50 AM -0.8 °F -12.5 °F -9.6 °F 66% 30.56 in 10.0 mi East 5.8 mph - N/A   Clear
10:10 AM 0.1 °F -9.7 °F -8.5 °F 67% 30.57 in 10.0 mi ESE 4.6 mph - N/A   Clear
10:30 AM 1.2 °F -11.5 °F -8.0 °F 65% 30.56 in 10.0 mi East 6.9 mph - N/A   Clear
10:50 AM 2.3 °F -5.2 °F -7.1 °F 65% 30.56 in 10.0 mi ESE 3.5 mph - N/A   Clear
11:10 AM 3.0 °F -9.3 °F -6.7 °F 64% 30.55 in 10.0 mi SE 6.9 mph - N/A   Clear
11:30 AM 4.1 °F -6.7 °F -6.5 °F 61% 30.56 in 10.0 mi SE 5.8 mph - N/A   Clear
11:50 AM 5.2 °F -6.7 °F -5.6 °F 61% 30.55 in 10.0 mi SSE 6.9 mph - N/A   Clear
12:09 PM 5.5 °F -6.3 °F -5.1 °F 62% 30.53 in 10.0 mi SSE 6.9 mph - N/A   Clear
12:30 PM 6.4 °F -6.3 °F -5.3 °F 59% 30.50 in 10.0 mi ESE 8.1 mph - N/A   Clear
12:50 PM 6.6 °F -6.1 °F -5.4 °F 58% 30.50 in 10.0 mi SE 8.1 mph - N/A   Clear
1:09 PM 6.8 °F -6.9 °F -4.9 °F 59% 30.49 in 10.0 mi SE 9.2 mph - N/A   Clear
1:30 PM 7.2 °F -5.4 °F -5.6 °F 56% 30.48 in 10.0 mi ESE 8.1 mph - N/A   Clear
1:49 PM 7.3 °F -4.1 °F -5.6 °F 56% 30.46 in 10.0 mi SSE 6.9 mph - N/A   Clear
2:10 PM 7.9 °F -3.5 °F -4.4 °F 57% 30.46 in 10.0 mi SSE 6.9 mph - N/A   Scattered Clouds
2:30 PM 8.4 °F -2.8 °F -4.7 °F 55% 30.44 in 10.0 mi SE 6.9 mph - N/A   Mostly Cloudy
2:49 PM 8.6 °F -4.7 °F -3.6 °F 58% 30.44 in 10.0 mi ESE 9.2 mph - N/A   Mostly Cloudy
3:10 PM 9.1 °F -3.0 °F -3.8 °F 56% 30.43 in 10.0 mi ESE 8.1 mph - N/A   Scattered Clouds
3:29 PM 9.5 °F -0.3 °F -3.3 °F 56% 30.41 in 10.0 mi SSE 5.8 mph - N/A   Clear
3:50 PM 9.7 °F -2.4 °F -2.4 °F 58% 30.40 in 10.0 mi SE 8.1 mph - N/A   Clear
4:10 PM 9.5 °F -4.4 °F -2.6 °F 58% 30.38 in 10.0 mi SE 10.4 mph - N/A   Scattered Clouds
4:30 PM 9.7 °F -3.3 °F -2.6 °F 58% 30.37 in 10.0 mi SE 9.2 mph - N/A   Clear
4:49 PM 9.9 °F -3.1 °F -1.5 °F 60% 30.34 in 10.0 mi SE 9.2 mph - N/A   Clear
5:10 PM 9.7 °F -4.2 °F -2.4 °F 58% 30.34 in 10.0 mi SE 10.4 mph - N/A   Scattered Clouds
5:29 PM 9.5 °F -4.4 °F -1.8 °F 60% 30.33 in 10.0 mi SSE 10.4 mph - N/A   Scattered Clouds
5:49 PM 10.0 °F -2.9 °F -2.0 °F 58% 30.34 in 10.0 mi SE 9.2 mph - N/A   Clear
6:10 PM 10.2 °F -2.7 °F -1.1 °F 60% 30.33 in 10.0 mi SE 9.2 mph - N/A   Scattered Clouds
6:29 PM 10.2 °F -4.3 °F -1.5 °F 59% 30.32 in 10.0 mi SE 11.5 mph - N/A   Scattered Clouds
6:50 PM 10.4 °F -3.3 °F -0.8 °F 61% 30.31 in 10.0 mi SE 10.4 mph - N/A   Scattered Clouds
7:09 PM 10.4 °F -2.4 °F -0.9 °F 60% 30.31 in 10.0 mi SE 9.2 mph - N/A   Clear
7:29 PM 10.4 °F -4.1 °F -0.6 °F 61% 30.30 in 10.0 mi SE 11.5 mph 16.1 mph N/A   Scattered Clouds
7:49 PM 10.9 °F -1.8 °F -0.4 °F 60% 30.29 in 10.0 mi SSE 9.2 mph 17.3 mph N/A   Mostly Cloudy
8:09 PM 10.9 °F -3.4 °F 0.1 °F 62% 30.27 in 10.0 mi SE 11.5 mph 16.1 mph N/A   Overcast
8:30 PM 10.9 °F -3.4 °F 0.7 °F 63% 30.25 in 10.0 mi SE 11.5 mph - N/A   Overcast
8:49 PM 11.3 °F -3.6 °F 1.0 °F 63% 30.23 in 10.0 mi SE 12.7 mph 18.4 mph N/A   Overcast
9:09 PM 11.3 °F -4.9 °F 1.4 °F 64% 30.24 in 10.0 mi SSE 15.0 mph - N/A   Overcast
9:30 PM 11.7 °F -4.4 °F 2.1 °F 66% 30.23 in 10.0 mi SSE 15.0 mph 20.7 mph N/A   Overcast
9:49 PM 11.8 °F -3.0 °F 2.1 °F 65% 30.23 in 10.0 mi SSE 12.7 mph 20.7 mph N/A   Overcast
10:09 PM 12.2 °F -3.1 °F 3.0 °F 67% 30.22 in 10.0 mi SSE 13.8 mph - N/A   Overcast
10:30 PM 12.2 °F -3.1 °F 3.2 °F 67% 30.21 in 10.0 mi SSE 13.8 mph - N/A   Overcast
10:50 PM 12.6 °F -2.0 °F 3.2 °F 66% 30.20 in 10.0 mi SSE 12.7 mph - N/A   Overcast
11:10 PM 12.7 °F -1.1 °F 3.7 °F 67% 30.19 in 10.0 mi SSE 11.5 mph 17.3 mph N/A   Overcast
11:29 PM 12.9 °F -0.9 °F 3.7 °F 67% 30.19 in 10.0 mi SSE 11.5 mph 17.3 mph N/A   Overcast
11:50 PM 13.1 °F 2.8 °F 4.1 °F 67% 30.20 in 10.0 mi SSE 6.9 mph - N/A   Overcast